Location: Pear Tree Mine
(38.5660°N, 119.0146°W)
Time: 07:51:56
(UTC+00:00)

Daily predictions for brighter satellites

Satellite Brightness Start Highest point End
(mag) Time Altitude Azimuth Time Altitude Azimuth Time Altitude Azimuth
Cosmos 2333 Rocket 3.5 12:13:27 34° NE 12:13:27 34° NE 12:16:41 10° NNE
Cosmos 2219 Rocket 3.2 12:17:16 41° NE 12:17:16 41° NE 12:21:02 10° NNE
COSMOS 2428 2.9 12:30:54 67° ESE 12:30:54 67° ESE 12:36:31 10° NNE
Cosmos 1461 4.5 12:30:57 37° ESE 12:31:01 37° ESE 12:35:24 10° NE
Cosmos 921 Rocket 3.9 12:43:59 45° E 12:43:59 45° E 12:47:47 10° NNE
Cosmos 2360 Rocket 4.4 12:49:01 13° N 12:49:01 13° N 12:49:37 10° N
COSMO-SKYMED 1 3.8 12:41:39 10° SE 12:45:41 39° ENE 12:47:20 28° NNE
SJ 16-02 2.3 12:52:18 40° SSE 12:52:18 40° SSE 12:55:08 10° SSE
IRIDIUM 104 4.4 12:45:55 10° S 12:51:05 75° E 12:56:19 10° N
CZ-2C R/B 3.2 12:59:14 21° S 12:59:54 21° SSE 13:03:00 10° ESE
IRIDIUM 114 4.2 12:55:00 10° S 13:00:13 89° WNW 13:05:28 10° N
CZ-4B R/B 3.4 13:00:08 10° NNE 13:03:40 50° E 13:07:15 10° S
USA 276 4.0 13:05:16 28° SE 13:05:16 28° SE 13:06:53 10° SE
Meteor 1-24 Rocket 3.6 13:07:13 58° W 13:07:17 58° W 13:12:49 10° S
CZ-4B R/B 3.3 13:05:23 10° SSE 13:06:46 23° SSE 13:06:46 23° SSE
IRIDIUM 103 4.2 13:04:11 10° S 13:09:22 73° W 13:14:36 10° N
ADEOS 3.5 13:05:26 10° N 13:10:27 56° WNW 13:10:27 56° WNW
Meteor 2-10 4.0 13:05:50 10° S 13:11:31 81° W 13:17:05 10° N
Okean 1-7 Rocket 4.3 13:09:26 10° N 13:13:54 53° E 13:18:17 10° SSE
Cosmos 1513 Rocket 4.4 13:08:23 10° S 13:14:45 89° W 13:21:02 10° N
Cosmos 1844 4.2 13:15:29 40° WSW 13:15:29 40° WSW 13:20:21 10° S
NOSS 0 Rocket 4.0 13:10:32 10° SSW 13:16:43 80° ESE 13:22:54 10° NNE
Lacrosse 5 rocket 3.7 13:15:34 12° N 13:16:52 13° NNE 13:18:48 10° ENE
Cosmos 540 Rocket 3.9 13:11:57 10° S 13:16:57 61° ESE 13:22:00 10° NNE
Cosmos 1689 Rocket 3.8 13:17:09 10° SE 13:19:47 32° ENE 13:21:07 21° NNE
BREEZE M DEB (TANK) 3.4 13:20:28 22° SE 13:20:36 22° SE 13:22:38 10° ENE
Cosmos 990 Rocket 3.9 13:18:25 24° NNW 13:21:39 90° WSW 13:26:46 10° SSE
Cosmos 1891 Rocket 4.3 13:16:41 10° SSW 13:22:54 75° W 13:29:03 10° N
MOS 1 Rocket 3.6 13:18:23 10° SSE 13:23:29 74° ENE 13:28:19 10° N
SAR-Lupe-4 4.2 13:21:42 10° SSE 13:25:12 55° ENE 13:28:05 15° N
Cosmos 1464 Rocket 3.8 13:20:16 10° S 13:26:22 77° W 13:32:31 10° N
H-2A R/B 2.7 13:23:22 10° NNE 13:27:04 75° ESE 13:30:47 10° S
IRIDIUM 106 4.5 13:22:42 10° SSW 13:27:43 48° W 13:32:46 10° N
Cosmos 1455 Rocket 3.0 13:26:17 10° SSW 13:30:35 59° W 13:34:54 10° N
Cosmos 1072 Rocket 4.4 13:24:46 10° SSW 13:30:52 65° W 13:37:07 10° N
Atlas Centaur 2 3.9 13:25:11 15° SW 13:31:22 43° SSE 13:39:15 10° E
Cosmos 1400 Rocket 4.3 13:28:38 10° SSE 13:32:25 39° E 13:36:16 10° NNE
SKYMED 2 3.6 13:29:22 10° S 13:33:37 57° W 13:35:54 26° NNW
SAR-Lupe-1 4.1 13:32:34 10° SSE 13:36:07 76° ENE 13:39:15 13° N
Cosmos 1844 Rocket 4.2 13:39:02 17° SW 13:39:02 17° SW 13:41:12 10° SW
SL-4 R/B 3.7 13:34:54 10° SSW 13:38:09 30° SE 13:41:38 10° ENE
SL-16 R/B 4.2 13:35:30 10° SSE 13:40:21 31° ESE 13:45:14 10° NE
OAO 2 Rocket 3.6 13:37:56 27° WSW 13:40:23 57° S 13:45:13 10° E
Chandra Rocket (1) 3.7 13:39:13 14° SW 13:41:11 18° SSW 13:43:19 10° SE
Cosmos 1763 Rocket 3.9 13:38:47 17° SW 13:42:15 39° WNW 13:47:08 10° N
PSLV R/B 4.2 13:40:59 10° NNE 13:44:56 67° ESE 13:48:57 10° S
Cosmos 2278 Rocket 2.3 13:40:14 10° NNW 13:45:56 79° ENE 13:51:36 10° SSE
Cosmos 841 Rocket 3.3 13:42:26 10° SSW 13:47:33 74° WNW 13:52:41 10° NNE
GPS 2-04 Rocket1 4.0 13:47:27 22° WSW 13:49:09 30° SSW 13:52:49 10° SE
H-2A R/B 4.0 13:44:55 10° NNE 13:49:11 42° E 13:53:28 10° S
Cosmos 1898 Rocket 3.5 13:45:09 14° NNW 13:49:31 58° WSW 13:54:34 10° S
deb Chang Zheng 4 4.1 13:46:12 10° N 13:50:04 34° WNW 13:53:53 10° SW
SJ-7 4.3 13:45:58 10° N 13:50:08 81° WNW 13:54:13 10° SSW
Okean O Rocket 3.8 13:46:25 10° NE 13:50:11 28° E 13:53:56 10° SSE
SMAP 4.4 13:46:07 10° NNE 13:50:33 42° E 13:54:56 10° S
ATLAS CENTAUR R/B 3.1 13:47:48 10° S 13:51:07 31° ESE 13:54:24 10° NE
Cosmos 2237 Rocket 2.1 13:47:37 10° SSW 13:53:15 69° WNW 13:58:56 10° NNE
Cosmos 2333 Rocket 3.4 13:55:32 20° WNW 13:55:49 20° NW 13:59:51 10° N
SL-8 R/B 4.2 13:52:55 19° NW 13:56:08 52° NNE 14:00:51 10° ESE
CZ-2C R/B 3.6 13:51:44 10° SE 13:56:40 46° ENE 14:01:42 10° N
Cosmos 1570 Rocket 3.9 13:52:08 10° SSW 13:57:20 74° WNW 14:02:35 10° NNE
YAOGAN 6 2.5 13:53:50 10° N 13:57:31 68° WNW 14:01:10 10° SSW
Cosmos 1092 Rocket 4.4 13:52:32 10° N 13:58:40 66° E 14:04:47 10° SSE
Cosmos 1953 2.6 13:55:54 10° SSW 13:59:41 43° W 14:03:31 10° N
Cosmos 2219 Rocket 3.4 13:59:04 19° WNW 13:59:53 20° NW 14:03:56 10° N
FALCON 9 DEB 3.6 13:58:52 26° W 14:00:16 41° NW 14:03:32 10° NE
Cosmos 2034 Rocket 4.1 13:57:07 10° SSW 14:03:20 56° W 14:09:37 10° N
Cosmos 1602 Rocket 3.8 14:01:29 10° N 14:05:57 76° E 14:10:24 10° SSE
USA 307 4.2 14:03:41 10° SSW 14:07:40 43° SE 14:11:40 10° ENE
PSLV R/B 4.3 14:04:35 10° S 14:08:27 40° W 14:12:21 10° NNW
ERS-2 3.2 14:07:13 10° SSW 14:10:13 24° W 14:12:15 15° NW
Cosmos 1461 4.2 14:07:25 15° W 14:10:13 26° NW 14:14:13 10° N
Cosmos 1908 3.4 14:07:42 10° SSW 14:11:22 47° W 14:15:04 10° N
COSMOS 2428 4.0 14:13:02 14° W 14:15:39 18° NW 14:19:33 10° N
GEOS 3 Rocket 4.1 14:10:59 10° S 14:16:02 44° WSW 14:21:11 10° NW
Nadezhda 4 Rocket 4.1 14:10:22 10° NNW 14:16:17 52° W 14:22:09 10° SSW
USA 308 3.8 14:12:14 10° SSW 14:16:19 51° SE 14:20:25 10° ENE
Cosmos 2208 Rocket 4.1 14:10:59 10° SSW 14:16:22 62° WNW 14:21:46 10° NNE
USA 305 3.6 14:13:07 10° SSW 14:17:15 56° SE 14:21:25 10° NE
MOS 1-B 4.3 14:12:44 10° NNE 14:18:33 85° WNW 14:24:18 10° SSW
Cosmos 1315 Rocket 4.1 14:15:59 10° SSE 14:19:43 44° E 14:23:27 10° NNE
Cosmos 1634 Rocket 4.0 14:14:03 10° S 14:20:12 89° E 14:26:25 10° N
COSMO-SKYMED 1 4.1 14:19:14 10° SW 14:21:58 16° W 14:24:34 11° NW
CORIOLIS 4.5 14:18:14 10° NNE 14:23:36 73° ESE 14:28:55 10° S
Cosmos 1814 Rocket 4.2 14:18:42 10° SW 14:23:38 46° WNW 14:28:34 10° N
Cosmos 1937 Rocket 4.1 14:20:18 10° NW 14:25:08 37° W 14:29:55 10° SSW
Cosmos 1980 4.3 14:20:59 10° SW 14:26:06 35° WNW 14:31:16 10° N
CENTAUR R/B 3.4 14:21:43 10° S 14:27:08 52° ESE 14:33:30 10° NE
NOAA 11 4.4 14:23:10 10° NNE 14:28:40 76° ESE 14:34:05 10° S
USA 306 3.2 14:24:48 10° SW 14:29:01 72° SE 14:33:15 10° NE
Envisat 3.5 14:24:25 10° N 14:29:05 38° WNW 14:33:45 10° SW
SWAS 4.5 14:25:11 10° SW 14:29:21 57° WNW 14:33:34 10° NNE
Cosmos 372 Rocket 4.0 14:24:08 10° NNW 14:29:23 70° WSW 14:34:34 10° S
NOAA 6 4.2 14:26:20 10° N 14:31:21 51° WNW 14:36:21 10° SSW
USA 238 DEB 3.8 14:31:25 10° SSW 14:37:55 85° ESE 14:44:45 10° NE
USA 238 3.8 14:31:33 10° SSW 14:38:03 84° ESE 14:44:52 10° NE
CZ-2C R/B 2.1 14:35:19 10° WSW 14:39:11 44° S 14:42:48 10° E
BREEZE-M DEB (TANK) 2.5 14:36:44 10° WNW 14:43:32 66° SW 14:46:11 10° SE
